Location: Eastchurch
(51.4000°N, 0.8667°E)
Time: 23:16:25
(UTC+00:00)

Cosmos 2333 Rocket - Pass Details

Date: 19 January 2026
Orbit: 838 x 864 km, 70.8° (Epoch: 7 February)

Event Time Altitude Azimuth Distance (km) Brightness Sun altitude
Rises 19:42:27 0° 330° (NNW) 3,446 5.8 -30.4°
Reaches altitude 10° 19:45:06 10° 338° (NNW) 2,503 4.9 -30.8°
Enters shadow 19:47:41 25° 355° (N) 1,682 3.8 -31.2°
